SCP
1 1 2 2 1 1 1 1 1 1 1 1 1 1 1 1 1 1 0 0 0 0 0 0 0 0 0 0 0 0 0 0 0 0 0 0 0 0 0 0 0 0 0
1 1 2 2 1 1 1 1 1 1 1 1 1 1 1 1 1 1 0 0 0 1 1 0 0 0 0 0 0 0 0 0 0 0 0 0 0 0 0 0 0 0 0
1 2 1 1 1 1 1 2 2 1 1 1 1 1 1 1 1 1 1 0 1 1 1 1 0 0 0 0 0 0 0 0 0 0 0 0 0 0 0 0 0 0 0
2 2 1 1 1 1 2 2 2 2 1 1 1 1 1 1 1 1 1 1 1 1 1 1 0 0 0 0 0 0 0 0 0 0 0 0 0 0 0 0 0 0 0
2 2 1 1 1 1 2 2 2 2 2 2 1 1 1 1 1 1 1 1 1 1 1 1 1 1 0 0 0 0 0 0 0 0 0 0 0 0 0 0 0 0 0
1 1 1 1 1 2 2 2 2 2 2 2 2 2 2 2 2 2 2 1 1 1 1 1 1 1 1 0 0 0 0 0 0 0 0 0 0 0 0 0 0 0 0
1 1 1 1 1 2 2 2 3 3 2 2 2 2 2 2 2 2 2 1 1 1 1 1 1 1 1 1 0 0 0 0 0 0 0 0 0 1 0 0 0 0 0
1 1 1 1 2 2 2 2 2 3 3 2 2 2 2 2 2 2 2 1 1 1 1 1 1 1 1 1 1 0 0 0 0 0 0 0 1 1 0 0 0 0 0
1 1 1 2 2 2 2 2 2 2 2 2 2 2 2 2 2 2 2 1 1 1 1 1 1 1 1 1 1 1 0 0 0 0 0 1 1 1 0 0 0 1 0
1 1 2 2 2 2 2 2 2 2 2 2 2 2 2 2 1 1 1 1 1 1 1 1 1 1 1 1 1 1 1 0 0 0 0 1 1 1 1 0 1 1 0
2 2 2 2 2 2 2 2 2 2 2 2 2 2 2 1 1 1 1 1 1 1 1 1 1 1 1 1 1 1 1 0 0 1 1 1 1 1 1 1 1 1 1
2 2 2 2 2 2 2 2 2 2 2 2 2 2 2 2 2 2 2 2 2 1 1 1 1 1 1 1 1 1 1 0 1 1 1 1 1 1 1 1 1 1 1
2 2 2 2 2 2 2 2 2 3 3 2 2 2 2 2 2 2 2 2 2 2 1 1 1 1 1 1 1 1 1 1 1 1 1 2 1 1 1 1 1 1 1
3 2 2 2 2 2 2 2 3 3 3 3 3 2 2 2 2 2 3 3 3 2 2 2 2 1 1 1 1 1 1 1 1 1 2 2 1 1 1 1 1 1 1
3 3 2 2 2 3 3 3 3 4 3 3 3 3 3 3 3 3 3 4 4 3 3 3 2 2 1 1 1 1 1 1 1 1 2 2 1 1 1 1 1 1 1
3 3 3 3 3 3 3 3 3 3 4 4 3 3 3 3 3 3 3 4 4 3 3 3 2 2 2 1 1 1 1 1 1 1 2 2 1 1 1 2 2 2 1
3 3 3 3 3 3 3 3 3 4 4 4 3 3 3 3 3 3 3 3 3 3 3 3 3 2 2 1 1 2 1 1 1 1 1 2 2 1 1 2 2 2 2
2 2 2 3 3 3 3 3 4 4 4 4 3 3 3 2 3 3 3 3 3 3 3 3 3 3 2 2 2 2 2 2 1 1 1 2 2 2 1 2 2 2 2
2 2 2 3 3 3 3 4 4 5 4 4 4 3 3 2 2 3 3 3 3 3 3 3 3 3 2 2 2 2 2 2 2 1 1 2 2 2 2 2 2 2 2
2 2 3 3 3 3 3 4 4 4 4 4 4 3 3 3 3 3 3 3 3 3 3 3 3 3 2 2 2 2 2 2 2 2 2 2 2 2 2 2 2 2 2
3 3 3 3 3 3 3 4 4 3 4 4 4 3 3 3 3 3 3 3 3 4 3 3 3 3 3 3 3 2 2 2 2 2 2 2 3 3 3 3 3 3 3
4 4 4 4 3 3 3 4 4 4 3 3 3 3 3 3 4 4 3 3 4 5 4 3 3 3 3 3 3 3 2 2 2 2 2 2 2 3 3 3 3 3 3
4 4 4 4 4 4 4 4 4 4 4 3 3 3 3 3 4 3 3 3 4 5 4 3 3 3 3 3 3 3 3 2 2 1 1 1 2 2 3 3 3 3 3
3 4 4 5 5 5 5 5 5 5 4 3 3 3 3 3 3 3 3 3 3 4 4 3 3 3 2 2 3 3 3 3 2 1 1 1 1 1 2 3 3 3 3
3 3 4 5 5 5 5 5 5 4 3 3 3 2 2 2 2 2 2 2 3 3 3 3 3 3 3 3 3 3 2 2 2 1 1 1 1 1 1 2 2 2 3
3 3 4 4 5 5 5 5 4 3 3 3 3 2 2 1 1 2 2 2 2 3 3 4 4 3 3 3 3 2 2 2 1 1 1 1 0 1 1 1 2 2 2
Wind_Speed
12 17 17 13 13 13 15 16 17 16 16 16 15 15 14 14 13 12 12 11 11 10 11 11 11 10 11 11 12 13 12 12 12 12 12 12 12 11 11 10 10 12 13
16 18 17 13 13 14 14 15 16 16 16 15 15 15 14 14 13 12 11 10 10 10 11 11 11 11 11 12 12 12 12 12 12 12 12 12 11 11 9 7 5 11 11
17 18 17 13 13 14 14 15 15 16 16 16 15 15 14 13 12 12 11 10 10 10 10 10 11 11 11 11 12 12 12 12 11 11 11 10 11 10 9 9 11 12 11
17 17 16 15 14 14 14 15 15 16 16 16 15 15 15 14 12 11 11 11 10 10 10 10 11 11 11 11 11 11 11 11 10 10 8 8 10 11 9 9 10 10 10
15 15 17 15 14 14 14 14 15 15 15 15 15 15 14 13 12 11 11 11 10 10 10 10 10 10 10 10 10 10 10 9 9 10 6 7 8 11 10 9 10 10 9
15 15 17 13 14 14 14 13 13 14 14 14 14 13 13 12 11 11 11 10 10 10 9 10 10 10 10 10 10 9 9 9 11 7 6 6 8 11 10 10 9 9 9
14 14 17 12 13 13 13 12 12 12 12 12 12 12 11 11 10 10 10 10 10 9 9 10 9 9 9 9 9 8 8 9 9 6 6 6 9 12 10 9 9 9 8
14 14 15 13 12 11 12 11 11 11 10 10 10 10 10 10 9 9 9 9 9 9 9 9 9 9 8 8 8 8 8 9 7 5 5 5 11 10 9 9 8 8 8
13 13 14 14 12 11 9 9 9 9 9 9 9 9 9 9 9 9 9 9 9 8 9 9 9 9 8 7 7 7 7 8 8 4 5 5 11 9 9 9 8 8 8
11 11 12 12 12 12 11 10 9 9 9 9 9 9 9 9 9 9 9 8 8 8 9 9 9 8 8 7 7 7 7 8 9 6 4 7 11 9 9 9 9 8 8
9 9 9 10 10 10 10 11 10 10 9 9 9 9 9 9 9 9 8 8 8 8 8 9 8 8 8 8 8 7 8 8 7 4 4 10 10 9 9 9 9 9 8
9 8 7 7 8 8 6 8 7 8 8 8 7 8 7 5 4 5 8 8 8 8 8 9 9 9 10 8 9 9 7 8 5 4 5 12 9 9 8 9 9 9 8
8 7 6 6 6 5 4 5 4 4 5 6 6 6 5 4 4 4 4 7 8 9 8 8 10 9 8 6 6 7 7 5 4 3 6 11 9 9 9 8 9 9 8
6 6 5 6 5 4 3 4 4 3 3 3 4 4 4 3 4 4 4 4 5 4 5 6 5 7 7 7 7 7 7 5 4 3 5 10 8 8 9 9 9 9 8
4 4 4 4 4 3 3 3 3 2 3 3 2 3 3 3 4 4 3 4 5 4 5 6 6 7 7 8 7 7 7 6 5 4 4 9 8 8 8 9 9 9 9
4 3 2 2 3 3 3 2 2 2 2 2 1 1 2 3 3 3 4 4 5 4 5 5 6 6 6 6 7 7 6 6 5 4 4 6 8 7 8 8 9 8 8
3 3 2 2 2 2 2 2 1 1 1 1 1 1 2 3 2 3 4 4 4 4 5 5 5 5 5 6 6 6 5 5 4 4 4 3 5 8 8 7 7 8 8
3 3 3 2 2 1 1 1 1 0 0 0 1 1 2 3 3 3 3 3 3 3 4 4 4 4 5 4 4 4 4 4 4 3 3 3 3 4 7 8 8 7 7
4 3 3 3 2 1 1 1 1 1 0 1 1 1 2 3 3 3 3 2 3 3 4 4 4 4 5 4 3 3 2 3 3 3 3 3 3 3 4 7 8 7 7
5 4 4 4 3 2 1 1 1 1 0 1 1 2 2 2 3 3 2 2 3 3 3 3 4 4 3 3 3 2 1 1 1 2 2 2 3 3 4 4 5 6 8
6 5 5 4 4 2 1 1 0 1 1 1 1 2 2 2 2 2 2 2 3 3 4 4 4 5 4 3 3 2 1 1 1 1 1 2 2 3 3 3 3 3 5
8 6 5 5 4 3 2 1 0 0 1 2 2 3 4 3 3 2 2 2 2 3 3 3 3 3 3 4 3 3 3 3 2 1 1 2 2 2 3 4 3 3 3
8 7 5 5 5 4 3 1 1 1 1 1 1 2 4 4 3 3 2 2 2 2 2 3 4 4 4 4 3 3 3 3 3 2 1 2 3 3 3 3 4 3 4
8 7 7 6 6 5 4 3 3 2 2 2 2 2 3 3 4 3 3 2 2 2 2 2 3 3 4 4 3 3 2 1 3 3 2 2 2 2 3 3 3 3 4
7 7 6 6 6 6 5 4 3 3 2 2 2 3 3 3 4 4 4 3 2 2 2 2 2 3 3 4 3 2 2 1 2 3 4 4 2 1 2 2 3 3 3
7 7 7 6 7 7 6 5 5 4 3 3 3 2 2 2 3 5 4 4 3 3 2 2 2 2 2 3 3 2 3 3 3 3 4 5 4 2 2 2 3 3 3
Wind_Direction
146 136 137 140 138 140 143 145 146 144 143 144 144 142 140 139 136 135 133 131 130 128 125 123 124 124 126 125 124 124 124 124 123 123 122 120 118 117 118 129 143 112 110
140 136 138 140 140 139 140 142 144 142 143 144 144 142 142 141 140 139 137 135 131 128 125 125 125 126 128 128 127 128 129 130 130 131 131 127 124 123 124 122 76 104 119
137 137 144 140 139 137 137 139 141 141 143 144 144 144 144 144 143 142 141 138 135 133 131 129 128 128 130 130 132 134 135 137 138 144 162 146 129 129 127 115 103 117 121
137 143 146 139 139 137 136 137 140 142 144 145 146 147 147 147 146 146 145 143 141 140 138 136 134 133 134 134 137 140 143 144 148 172 181 134 135 131 135 129 127 128 125
137 142 136 143 139 138 136 137 139 142 144 145 148 149 149 149 149 150 150 149 147 146 144 142 140 140 141 142 145 147 148 150 163 209 148 139 129 135 144 140 137 134 131
140 142 136 145 139 138 138 137 139 142 143 146 148 149 150 151 151 152 154 154 152 151 150 147 146 146 147 149 151 153 154 162 196 182 144 153 135 143 152 150 147 143 140
140 138 137 140 138 140 141 140 140 141 142 145 147 148 149 150 152 155 158 159 158 157 157 153 152 151 152 154 158 160 166 188 230 157 159 166 127 143 160 160 155 151 150
138 136 133 138 142 144 145 143 141 140 140 142 144 146 146 148 153 159 162 164 164 163 163 159 159 160 161 163 166 169 176 213 221 169 169 148 118 153 165 163 160 159 158
138 136 143 150 150 149 145 144 142 140 139 139 141 145 150 154 160 165 165 165 166 167 168 166 166 169 169 172 174 176 184 226 245 181 181 148 136 166 172 170 170 170 167
140 143 147 152 155 163 161 156 152 149 148 148 150 154 159 165 172 175 180 169 171 171 172 172 173 176 177 180 181 183 190 219 234 191 180 137 147 176 180 177 176 176 174
139 145 151 153 158 168 163 154 164 164 164 169 169 167 180 190 184 183 186 162 179 181 181 180 181 185 187 184 188 191 204 226 216 207 177 125 157 182 186 181 179 179 178
146 151 150 151 159 171 163 156 178 181 172 192 180 182 199 198 198 200 145 172 188 191 192 190 190 193 209 194 184 199 217 224 219 203 144 134 164 185 190 185 181 183 184
147 148 150 150 158 168 168 168 178 187 174 193 185 191 206 205 202 205 181 183 194 196 201 188 198 209 211 209 197 204 224 227 228 211 141 146 171 188 190 185 183 185 185
139 145 151 148 154 168 173 177 183 188 179 190 178 205 209 211 215 211 209 206 204 203 206 205 214 213 217 212 214 215 214 223 231 218 140 148 171 186 188 184 181 180 178
112 125 143 149 146 158 169 194 176 182 179 180 188 206 234 236 234 227 225 220 222 212 208 214 217 213 217 215 218 218 222 218 231 231 154 152 168 182 186 183 181 182 179
96 103 114 144 142 153 161 175 178 180 187 201 176 200 232 249 250 247 241 235 235 229 225 223 217 216 222 222 221 217 221 221 220 228 220 161 165 172 178 180 179 175 173
86 86 102 123 114 137 164 179 176 190 194 203 173 221 234 245 252 250 243 237 243 235 228 230 223 218 219 218 220 216 215 221 221 217 222 210 174 161 161 162 164 163 165
75 84 82 83 95 119 131 206 200 243 206 221 237 244 252 252 247 248 244 241 240 233 224 218 217 218 221 219 217 214 210 198 199 197 198 199 186 161 150 147 144 146 151
57 68 75 71 73 86 127 146 145 106 343 296 282 284 275 261 252 251 250 249 231 228 223 222 207 218 216 206 206 205 208 201 189 189 185 183 163 152 143 133 136 140 145
52 50 51 63 55 51 101 126 119 119 116 1 330 326 308 294 270 254 244 255 239 230 224 225 219 217 217 197 195 170 165 185 187 177 183 166 148 147 147 145 142 138 130
48 46 39 39 40 31 40 41 67 94 61 41 28 13 350 335 303 278 276 261 255 242 236 226 223 207 200 183 179 174 152 118 119 137 161 145 134 135 134 133 137 141 128
39 39 40 33 29 23 26 38 60 70 73 55 32 33 17 357 344 314 298 285 276 253 238 227 218 217 202 191 188 180 183 176 153 126 140 140 131 130 125 113 115 112 123
38 29 30 30 28 24 19 50 94 110 100 77 58 48 28 14 14 349 339 313 297 283 257 234 222 218 209 204 203 193 193 200 159 137 136 117 122 116 116 111 110 102 107
38 34 32 34 33 27 23 33 48 63 61 34 19 49 44 28 18 6 2 346 314 299 291 267 237 231 216 210 202 224 226 178 178 154 139 123 112 120 122 122 110 109 113
41 37 36 41 41 34 30 30 36 49 51 54 47 53 39 33 23 13 7 356 334 314 308 299 272 248 226 220 206 191 188 187 203 175 164 150 126 101 110 123 110 115 119
46 43 40 43 41 36 34 34 41 51 53 58 49 43 38 35 28 20 13 5 351 346 338 315 280 244 248 237 225 206 193 182 182 184 172 160 148 133 115 108 121 120 109